Notices

What's New in latest Release from April 7th, 2021:

- Updated Glossary, including Speed of Maximum Gust, and Total Hourly Precipitation

- Updated national and regional climate services offices contacts and prices information

- Addition of station inventory lists for 1981-2010, 1971-2000, and 1961-1990 Normals.

If you haven't already, please take our survey and provide feedback about our website: https://eccc.sondage-survey.ca/f/LanguageSelection.aspx?s=442ca660-fcf1-47c0-95a9-59707d6fd709

Hourly Data Report for November 20, 2020

SHEARWATER RCS
NOVA SCOTIA
Current Station Operator: ECCC - MSC

44°37'47.000" N
63°30'48.000" W
24.00 m
8205092
71264
AAW

Download Data

Hourly Data (November 2020)
Hourly Data Report for November 20, 2020
TIME
LST
Temp Definition
°C
Dew Point Definition
°C
Rel Hum Definition
%
Precip. Amount Definition
mm

Wind Dir Definition
10's deg

Wind Spd Definition
km/h
Visibility Definition
km
Stn Press Definition
kPa
Hmdx Definition


Wind Chill Definition


Weather Definition


00:00 5.7 1.4 74 0.0 25 11   102.53     LegendNANA
01:00 6.6 2.7 76 0.0 21 12   102.41     LegendNANA
02:00 8.1 4.0 75 0.0 22 23   102.33     LegendNANA
03:00 8.6 4.7 76 0.0 22 22   102.27     LegendNANA
04:00 9.2 5.5 78 0.0 22 27   102.18     LegendNANA
05:00 9.5 6.5 81 0.0 22 24   102.14     LegendNANA
06:00 9.8 6.9 82 0.0 22 25   102.10     LegendNANA
07:00 9.9 7.2 84 0.0 22 24   102.09     LegendNANA
08:00 10.1 7.6 84 0.0 22 22   102.06     LegendNANA
09:00 10.6 8.0 84 0.0 22 22   102.03     LegendNANA
10:00 10.8 7.8 82 0.0 22 19   101.96     LegendNANA
11:00 11.0 7.7 80 0.0 23 16   101.94     LegendNANA
12:00 10.9 7.9 81 0.0 22 19   101.86     LegendNANA
13:00 10.9 7.7 80 0.0 23 15   101.81     LegendNANA
14:00 11.3 7.7 78 0.0 23 10   101.80     LegendNANA
15:00 11.4 7.1 75 0.0 24 12   101.82     LegendNANA
16:00 11.2 7.0 75 0.0 22 13   101.81     LegendNANA
17:00 10.7 7.0 78 0.0 24 6   101.81     LegendNANA
18:00 10.6 7.1 79 0.0 22 13   101.83     LegendNANA
19:00 10.7 6.7 76 0.0 22 13   101.80     LegendNANA
20:00 10.3 6.7 78 0.0 22 18   101.76     LegendNANA
21:00 10.3 7.6 83 0.0 22 16   101.76     LegendNANA
22:00 10.1 8.0 87 0.0 22 14   101.71     LegendNANA
23:00 9.9 8.3 90 0.0 21 15   101.64     LegendNANA

Notes on Data Quality.

Legend

  • E = Estimated
  • M = Missing
  • NA = Not Available*
  • [empty] = Indicates an unobserved value
Date modified: